DW6228 Weather Reports


time (UTC)temp
C
wind
direction
speed
KPH
gust
KPH
rain 1hr
cm
rain 24hr
cm
rain mn
cm
humidity
%
barometer
mb
20190419111514 13 64 3.2 8.0 0.00 0.00 0.00 88 1022.2
20190419110529 13 95 3.2 6.4 0.00 0.00 0.00 88 1022.2
20190419105543 13 98 3.2 9.7 0.00 0.00 0.00 89 1022.2
20190419104554 13 75 6.4 11.3 0.00 0.00 0.00 89 1022.0
20190419103600 13 101 4.8 11.3 0.00 0.00 0.00 89 1022.0
20190419102554 14 98 4.8 9.7 0.00 0.00 0.00 88 1021.9
20190419101613 13 98 4.8 11.3 0.00 0.00 0.00 86 1022.0
20190419100610 13 278 4.8 11.3 0.00 0.00 0.00 86 1022.1
20190419095537 13 95 4.8 12.9 0.00 0.00 0.00 87 1022.2
20190419094552 13 95 6.4 12.9 0.00 0.00 0.00 88 1022.2
20190419093550 13 60 4.8 11.3 0.00 0.00 0.00 88 1022.2
20190419092603 13 93 6.4 14.5 0.00 0.00 0.00 87 1022.2
20190419091528 13 71 6.4 16.1 0.00 0.00 0.00 86 1022.2
20190419090547 13 72 6.4 16.1 0.00 0.00 0.00 87 1022.0
20190419085517 13 86 4.8 11.3 0.00 0.00 0.00 87 1022.0
20190419084523 13 77 4.8 12.9 0.00 0.00 0.00 85 1021.9
20190419083537 13 93 6.4 12.9 0.00 0.00 0.00 84 1021.9
20190419082501 13 95 4.8 11.3 0.00 0.00 0.00 83 1021.8
20190419081428 13 98 4.8 11.3 0.00 0.00 0.00 81 1021.7
20190419080405 13 94 4.8 11.3 0.00 0.00 0.00 81 1021.6
20190419075423 13 102 6.4 11.3 0.00 0.00 0.00 83 1021.6
20190419074353 13 91 6.4 12.9 0.00 0.00 0.00 82 1021.7
20190419073413 13 92 6.4 12.9 0.00 0.00 0.00 82 1021.6
20190419072407 14 95 6.4 11.3 0.00 0.00 0.00 80 1021.8
20190419071412 14 91 4.8 11.3 0.00 0.00 0.00 78 1021.7
20190419070411 15 96 1.6 4.8 0.00 0.00 0.00 76 1022.1
20190419065401 15 80 0.0 6.4 0.00 0.00 0.00 74 1022.2
20190419064408 15 52 1.6 11.3 0.00 0.00 0.00 73 1022.1
20190419063354 15 41 3.2 11.3 0.00 0.00 0.00 72 1022.0
20190419062351 15 96 3.2 9.7 0.00 0.00 0.00 72 1022.0
20190419061359 15 68 3.2 8.0 0.00 0.00 0.00 72 1022.0
20190419060403 15 53 3.2 8.0 0.00 0.00 0.00 72 1022.0
20190419055333 15 78 1.6 8.0 0.00 0.00 0.00 72 1022.3
20190419054312 15 86 3.2 8.0 0.00 0.00 0.00 73 1022.1
20190419053251 15 105 4.8 8.0 0.00 0.00 0.00 72 1022.2
20190419052218 16 94 3.2 9.7 0.00 0.00 0.00 70 1022.1
20190419051155 16 93 3.2 12.9 0.00 0.00 0.00 70 1021.9
20190419050214 16 66 3.2 12.9 0.00 0.00 0.00 68 1021.9
20190419045231 17 76 4.8 11.3 0.00 0.00 0.00 67 1021.8
20190419044227 16 12 3.2 9.7 0.00 0.00 0.00 68 1021.9
20190419043243 17 99 4.8 14.5 0.00 0.00 0.00 68 1022.0
20190419042211 16 33 6.4 14.5 0.00 0.00 0.00 68 1022.0
20190419041226 17 67 4.8 14.5 0.00 0.00 0.00 66 1021.8
20190419040244 17 76 3.2 14.5 0.00 0.00 0.00 68 1022.1
20190419035227 17 93 4.8 14.5 0.00 0.00 0.00 68 1022.2
20190419034230 16 80 4.8 12.9 0.00 0.00 0.00 69 1022.4
20190419033153 16 86 4.8 11.3 0.00 0.00 0.00 69 1022.5
20190419032207 16 102 3.2 11.3 0.00 0.00 0.00 70 1022.7
20190419031219 16 79 4.8 12.9 0.00 0.00 0.00 68 1022.7
20190419030159 17 108 6.4 14.5 0.00 0.00 0.00 69 1022.8
20190419025157 16 48 6.4 14.5 0.00 0.00 0.00 69 1022.9
20190419024145 16 67 4.8 20.9 0.00 0.00 0.00 69 1023.0
20190419023138 16 67 9.7 20.9 0.00 0.00 0.00 70 1023.2
20190419022112 16 31 4.8 19.3 0.00 0.00 0.00 69 1023.4
20190419021111 16 110 8.0 20.9 0.00 0.00 0.00 73 1023.5
20190419020102 16 69 8.0 20.9 0.00 0.00 0.00 70 1023.8
20190419015034 16 28 6.4 16.1 0.00 0.00 0.00 70 1024.0
20190419013957 16 95 6.4 12.9 0.00 0.00 0.00 72 1024.2
20190419012959 15 76 11.3 25.7 0.00 0.00 0.00 73 1024.4
20190419012014 15 65 9.7 25.7 0.00 0.00 0.00 71 1024.5
20190419010955 15 48 4.8 14.5 0.00 0.00 0.00 73 1024.6
20190419005957 15 65 6.4 19.3 0.00 0.00 0.00 72 1024.5
20190419005005 15 98 8.0 19.3 0.00 0.00 0.00 73 1024.5
20190419004014 15 76 6.4 16.1 0.00 0.00 0.00 74 1024.8
20190419002939 15 79 6.4 16.1 0.00 0.00 0.00 73 1024.8
20190419001907 15 105 8.0 17.7 0.00 0.00 0.00 75 1025.0
20190419000842 14 60 8.0 24.1 0.00 0.00 0.00 75 1024.9
20190418235821 14 60 6.4 24.1 0.00 0.00 0.00 75 1025.0
20190418234819 14 98 4.8 19.3 0.00 0.00 0.00 76 1025.1
20190418233817 13 68 9.7 19.3 0.00 0.00 0.00 76 1025.2
20190418232824 14 36 8.0 16.1 0.00 0.00 0.00 76 1025.2
20190418231817 15 104 4.8 12.9 0.00 0.00 0.00 75 1025.2
20190418230838 13 51 6.4 16.1 0.00 0.00 0.00 79 1025.2
20190418225818 13 67 8.0 16.1 0.00 0.00 0.00 79 1025.3
20190418224808 13 62 8.0 14.5 0.00 0.00 0.00 78 1025.3
20190418223814 13 80 8.0 14.5 0.00 0.00 0.00 79 1025.4
20190418222758 12 33 6.4 12.9 0.00 0.00 0.00 80 1025.3
20190418221732 12 73 4.8 12.9 0.00 0.00 0.00 81 1025.2
20190418220735 12 93 3.2 8.0 0.00 0.00 0.00 82 1025.2
20190418215736 11 60 3.2 6.4 0.00 0.00 0.00 83 1025.1
20190418214748 11 69 1.6 6.4 0.00 0.00 0.00 83 1025.2
20190418213806 11 68 0.0 3.2 0.00 0.00 0.00 84 1025.2
20190418212739 11 42 0.0 3.2 0.00 0.00 0.00 84 1025.1
20190418211707 11 64 1.6 4.8 0.00 0.00 0.00 84 1024.9
20190418210648 11 47 1.6 6.4 0.00 0.00 0.00 84 1024.9
20190418205700 11 48 3.2 8.0 0.00 0.00 0.00 85 1024.6
20190418204714 11 69 3.2 8.0 0.00 0.00 0.00 85 1024.5
20190418203643 11 58 3.2 6.4 0.00 0.00 0.00 85 1024.4
20190418202647 11 74 1.6 8.0 0.00 0.00 0.00 85 1024.5
20190418201632 10 78 1.6 8.0 0.00 0.00 0.00 85 1024.5
20190418200623 10 72 1.6 4.8 0.00 0.00 0.00 85 1024.7
20190418195624 10 67 0.0 3.2 0.00 0.00 0.00 85 1024.8
20190418194601 10 83 0.0 3.2 0.00 0.00 0.00 85 1024.7
20190418193526 10 62 0.0 3.2 0.00 0.00 0.00 86 1024.6
20190418192522 10 32 0.0 1.6 0.00 0.00 0.00 85 1024.6
20190418191501 10 90 0.0 4.8 0.00 0.00 0.00 85 1024.7
20190418190456 9 43 0.0 0.0 0.00 0.00 0.00 85 1024.7
20190418185503 10 31 0.0 1.6 0.00 0.00 0.00 83 1024.6
20190418184514 10 81 0.0 0.0 0.00 0.00 0.00 83 1024.5
20190418183520 10 88 0.0 1.6 0.00 0.00 0.00 82 1024.5
20190418182528 10 69 0.0 0.0 0.00 0.00 0.00 81 1024.6
20190418181518 10 80 1.6 6.4 0.00 0.00 0.00 80 1024.6
20190418180537 11 116 1.6 6.4 0.00 0.00 0.00 80 1024.6
20190418175510 10 87 1.6 6.4 0.00 0.00 0.00 80 1024.6
20190418174439 11 75 0.0 8.0 0.00 0.00 0.00 79 1024.6
20190418173414 11 71 1.6 11.3 0.00 0.00 0.00 79 1024.5
20190418172414 11 159 1.6 11.3 0.00 0.00 0.00 80 1024.5
20190418171424 11 71 1.6 6.4 0.00 0.00 0.00 79 1024.5
20190418170347 11 87 1.6 8.0 0.00 0.00 0.00 79 1024.7
20190418165409 11 96 1.6 8.0 0.00 0.00 0.00 79 1024.8
20190418164417 11 81 1.6 8.0 0.00 0.00 0.00 80 1025.0
20190418163355 11 67 1.6 8.0 0.00 0.00 0.00 79 1025.1
20190418162412 11 99 1.6 8.0 0.00 0.00 0.00 80 1025.1
20190418161348 10 76 1.6 4.8 0.00 0.00 0.00 81 1025.2
20190418160349 10 87 0.0 3.2 0.00 0.00 0.00 82 1025.4
20190418155321 10 82 0.0 3.2 0.00 0.00 0.00 82 1025.6
20190418154311 10 56 0.0 3.2 0.00 0.00 0.00 83 1025.6
20190418153330 10 99 0.0 1.6 0.00 0.00 0.00 84 1025.6
20190418152323 10 91 0.0 3.2 0.00 0.00 0.00 87 1025.8
20190418151305 9 64 0.0 0.0 0.00 0.00 0.00 87 1025.9
20190418150235 9 64 0.0 0.0 0.00 0.00 0.00 86 1026.0
20190418145231 9 64 0.0 0.0 0.00 0.00 0.00 87 1026.0
20190418144234 9 64 0.0 0.0 0.00 0.00 0.00 85 1026.1
20190418143214 9 64 0.0 0.0 0.00 0.00 0.00 85 1026.1
20190418142218 9 45 0.0 0.0 0.00 0.00 0.00 85 1026.1
20190418141231 9 45 0.0 0.0 0.00 0.00 0.00 84 1026.1
20190418140240 10 45 0.0 0.0 0.00 0.00 0.00 82 1026.2
20190418135207 10 65 0.0 0.0 0.00 0.00 0.00 82 1026.2
20190418134212 10 76 0.0 0.0 0.00 0.00 0.00 81 1026.2
20190418133205 10 60 0.0 0.0 0.00 0.00 0.00 80 1026.3
20190418132225 10 66 0.0 0.0 0.00 0.00 0.00 80 1026.3
20190418131224 10 78 0.0 1.6 0.00 0.00 0.00 79 1026.4
20190418130149 10 73 0.0 1.6 0.00 0.00 0.00 79 1026.5
20190418125126 11 81 0.0 0.0 0.00 0.00 0.00 79 1026.6
20190418124052 11 118 0.0 3.2 0.00 0.00 0.00 79 1026.7
20190418123113 11 81 0.0 3.2 0.00 0.00 0.00 80 1026.7
20190418122124 11 68 0.0 3.2 0.00 0.00 0.00 79 1026.6
20190418121101 11 82 0.0 3.2 0.00 0.00 0.00 78 1026.6
20190418120031 11 92 0.0 4.8 0.00 0.00 0.00 78 1026.5
20190418115017 11 102 1.6 4.8 0.00 0.00 0.00 77 1026.4
20190418114038 11 69 0.0 8.0 0.00 0.00 0.00 76 1026.4
20190418113014 11 86 3.2 9.7 0.00 0.00 0.00 76 1026.3